Time,TemperatureF,DewpointF,PressureIn,WindDirection,WindDirectionDegrees,WindSpeedMPH,WindSpeedGustMPH,Humidity,HourlyPrecipIn,Conditions,Clouds,dailyrainin,SoftwareType,DateUTC
2013-01-30 00:00:00,31.0,22.7,29.75,SSE,157,3.0,6.0,71,0.00,,,0.00,Weather View 32 v70,2013-01-30 05:00:00,
2013-01-30 00:02:00,31.0,22.7,29.75,SSE,157,4.0,6.0,71,0.00,,,0.00,Weather View 32 v70,2013-01-30 05:02:00,
2013-01-30 00:03:00,31.0,23.0,29.75,SE,135,3.0,6.0,72,0.00,,,0.00,Weather View 32 v70,2013-01-30 05:03:00,
2013-01-30 00:08:00,31.0,23.0,29.75,SE,135,6.0,6.0,72,0.00,,,0.00,Weather View 32 v70,2013-01-30 05:08:00,
2013-01-30 00:13:00,31.0,23.0,29.74,SE,135,5.0,7.0,72,0.00,,,0.00,Weather View 32 v70,2013-01-30 05:13:00,
2013-01-30 00:18:00,31.0,23.0,29.73,ESE,112,3.0,7.0,72,0.00,,,0.00,Weather View 32 v70,2013-01-30 05:18:00,
2013-01-30 00:23:00,31.0,23.0,29.74,SE,135,4.0,7.0,72,0.00,,,0.00,Weather View 32 v70,2013-01-30 05:23:00,
2013-01-30 00:28:00,31.0,23.0,29.74,SE,135,2.0,7.0,72,0.00,,,0.00,Weather View 32 v70,2013-01-30 05:28:00,
2013-01-30 00:33:00,31.0,23.4,29.74,SE,135,3.0,7.0,73,0.00,,,0.00,Weather View 32 v70,2013-01-30 05:33:00,
2013-01-30 00:38:00,31.0,23.4,29.73,SE,135,0.0,7.0,73,0.00,,,0.00,Weather View 32 v70,2013-01-30 05:38:00,
2013-01-30 00:43:00,31.0,23.4,29.73,SW,225,0.0,7.0,73,0.00,,,0.00,Weather View 32 v70,2013-01-30 05:43:00,
2013-01-30 00:48:00,31.0,23.4,29.73,West,270,0.0,7.0,73,0.00,,,0.00,Weather View 32 v70,2013-01-30 05:48:00,
2013-01-30 00:53:00,31.0,23.7,29.73,West,270,0.0,7.0,74,0.00,,,0.00,Weather View 32 v70,2013-01-30 05:53:00,
2013-01-30 00:58:00,31.0,24.0,29.73,West,270,0.0,7.0,75,0.00,,,0.00,Weather View 32 v70,2013-01-30 05:58:00,
2013-01-30 01:03:00,31.0,23.4,29.73,West,270,0.0,7.0,73,0.00,,,0.00,Weather View 32 v70,2013-01-30 06:03:00,
2013-01-30 01:08:00,31.0,24.0,29.72,SSW,202,0.0,7.0,75,0.00,,,0.00,Weather View 32 v70,2013-01-30 06:08:00,
2013-01-30 01:13:00,31.0,24.0,29.72,SSW,202,1.0,6.0,75,0.00,,,0.00,Weather View 32 v70,2013-01-30 06:13:00,
2013-01-30 01:18:00,31.0,24.0,29.72,SSW,202,2.0,6.0,75,0.00,,,0.00,Weather View 32 v70,2013-01-30 06:18:00,
2013-01-30 01:23:00,31.0,24.6,29.72,SSW,202,0.0,5.0,77,0.00,,,0.00,Weather View 32 v70,2013-01-30 06:23:00,
2013-01-30 01:28:00,31.0,24.9,29.71,South,180,4.0,6.0,78,0.00,,,0.00,Weather View 32 v70,2013-01-30 06:28:00,
2013-01-30 01:33:00,32.0,26.8,29.70,South,180,7.0,8.0,81,0.00,,,0.00,Weather View 32 v70,2013-01-30 06:33:00,
2013-01-30 01:38:00,33.0,27.8,29.70,South,180,5.0,9.0,81,0.00,,,0.00,Weather View 32 v70,2013-01-30 06:38:00,
2013-01-30 01:43:00,33.0,27.8,29.70,SSW,202,7.0,9.0,81,0.00,,,0.00,Weather View 32 v70,2013-01-30 06:43:00,
2013-01-30 01:48:00,33.0,27.8,29.70,South,180,7.0,9.0,81,0.00,,,0.00,Weather View 32 v70,2013-01-30 06:48:00,
2013-01-30 01:53:00,33.0,27.8,29.70,SSW,202,5.0,9.0,81,0.00,,,0.00,Weather View 32 v70,2013-01-30 06:53:00,
2013-01-30 01:58:00,33.0,27.8,29.70,SSE,157,2.0,9.0,81,0.00,,,0.00,Weather View 32 v70,2013-01-30 06:58:00,
2013-01-30 02:03:00,33.0,28.1,29.72,South,180,3.0,9.0,82,0.00,,,0.00,Weather View 32 v70,2013-01-30 07:03:00,
2013-01-30 02:08:00,33.0,28.1,29.72,South,180,4.0,9.0,82,0.00,,,0.00,Weather View 32 v70,2013-01-30 07:08:00,
2013-01-30 02:13:00,33.0,28.1,29.71,SSW,202,5.0,9.0,82,0.00,,,0.00,Weather View 32 v70,2013-01-30 07:13:00,
2013-01-30 02:18:00,34.0,29.4,29.71,SE,135,5.0,9.0,83,0.00,,,0.00,Weather View 32 v70,2013-01-30 07:18:00,
2013-01-30 02:23:00,34.0,29.7,29.71,SSW,202,6.0,9.0,84,0.00,,,0.00,Weather View 32 v70,2013-01-30 07:23:00,
2013-01-30 02:28:00,35.0,30.9,29.69,SW,225,7.0,9.0,85,0.00,,,0.00,Weather View 32 v70,2013-01-30 07:28:00,
2013-01-30 02:33:00,35.0,31.2,29.69,SSW,202,4.0,9.0,86,0.00,,,0.00,Weather View 32 v70,2013-01-30 07:33:00,
2013-01-30 02:38:00,35.0,31.5,29.70,SSW,202,3.0,9.0,87,0.00,,,0.00,Weather View 32 v70,2013-01-30 07:38:00,
2013-01-30 02:43:00,36.0,32.5,29.70,South,180,7.0,10.0,87,0.00,,,0.00,Weather View 32 v70,2013-01-30 07:43:00,
2013-01-30 02:48:00,36.0,32.8,29.69,South,180,6.0,10.0,88,0.00,,,0.00,Weather View 32 v70,2013-01-30 07:48:00,
2013-01-30 02:53:00,36.0,33.1,29.69,South,180,5.0,12.0,89,0.00,,,0.00,Weather View 32 v70,2013-01-30 07:53:00,
2013-01-30 02:58:00,36.0,33.1,29.68,South,180,5.0,12.0,89,0.00,,,0.00,Weather View 32 v70,2013-01-30 07:58:00,
2013-01-30 03:03:00,36.0,33.1,29.68,SSW,202,4.0,12.0,89,0.00,,,0.00,Weather View 32 v70,2013-01-30 08:03:00,
2013-01-30 03:08:00,36.0,33.1,29.69,SSW,202,7.0,12.0,89,0.00,,,0.00,Weather View 32 v70,2013-01-30 08:08:00,
2013-01-30 03:13:00,36.0,33.1,29.69,SSW,202,8.0,12.0,89,0.00,,,0.00,Weather View 32 v70,2013-01-30 08:13:00,
2013-01-30 03:18:00,36.0,33.3,29.69,SSW,202,7.0,12.0,90,0.00,,,0.00,Weather View 32 v70,2013-01-30 08:18:00,
2013-01-30 03:23:00,36.0,33.6,29.69,SSW,202,5.0,12.0,91,0.00,,,0.00,Weather View 32 v70,2013-01-30 08:23:00,
2013-01-30 03:28:00,36.0,33.6,29.69,South,180,7.0,12.0,91,0.00,,,0.00,Weather View 32 v70,2013-01-30 08:28:00,
2013-01-30 03:33:00,36.0,33.9,29.68,SSW,202,9.0,12.0,92,0.00,,,0.00,Weather View 32 v70,2013-01-30 08:33:00,
2013-01-30 03:38:00,36.0,34.2,29.68,South,180,10.0,12.0,93,0.00,,,0.00,Weather View 32 v70,2013-01-30 08:38:00,
2013-01-30 03:43:00,36.0,34.4,29.68,SSE,157,7.0,12.0,94,0.00,,,0.00,Weather View 32 v70,2013-01-30 08:43:00,
2013-01-30 03:48:00,36.0,34.7,29.68,SSW,202,7.0,12.0,95,0.01,,,0.01,Weather View 32 v70,2013-01-30 08:48:00,
2013-01-30 03:53:00,36.0,34.7,29.68,SSW,202,7.0,12.0,95,0.01,,,0.01,Weather View 32 v70,2013-01-30 08:53:00,
2013-01-30 03:58:00,36.0,35.0,29.68,SSE,157,3.0,12.0,96,0.01,,,0.01,Weather View 32 v70,2013-01-30 08:58:00,
2013-01-30 04:03:00,36.0,35.0,29.67,South,180,10.0,12.0,96,0.01,,,0.01,Weather View 32 v70,2013-01-30 09:03:00,
2013-01-30 04:08:00,36.0,35.0,29.68,SSW,202,9.0,12.0,96,0.01,,,0.01,Weather View 32 v70,2013-01-30 09:08:00,
2013-01-30 04:13:00,36.0,35.2,29.66,SSW,202,7.0,13.0,97,0.01,,,0.01,Weather View 32 v70,2013-01-30 09:13:00,
2013-01-30 04:18:00,36.0,35.5,29.66,South,180,10.0,13.0,98,0.02,,,0.02,Weather View 32 v70,2013-01-30 09:18:00,
2013-01-30 04:23:00,36.0,35.5,29.66,SSW,202,6.0,13.0,98,0.02,,,0.02,Weather View 32 v70,2013-01-30 09:23:00,
2013-01-30 04:28:00,37.0,36.5,29.65,SSW,202,9.0,13.0,98,0.02,,,0.02,Weather View 32 v70,2013-01-30 09:28:00,
2013-01-30 04:33:00,37.0,36.5,29.65,WSW,247,3.0,13.0,98,0.02,,,0.02,Weather View 32 v70,2013-01-30 09:33:00,
2013-01-30 04:38:00,37.0,36.5,29.65,SSW,202,6.0,13.0,98,0.02,,,0.02,Weather View 32 v70,2013-01-30 09:38:00,
2013-01-30 04:43:00,37.0,36.7,29.64,SSW,202,6.0,13.0,99,0.03,,,0.03,Weather View 32 v70,2013-01-30 09:43:00,
2013-01-30 04:48:00,37.0,36.7,29.66,SSW,202,8.0,13.0,99,0.02,,,0.03,Weather View 32 v70,2013-01-30 09:48:00,
2013-01-30 04:53:00,37.0,36.7,29.65,SE,135,7.0,13.0,99,0.02,,,0.03,Weather View 32 v70,2013-01-30 09:53:00,
2013-01-30 04:58:00,37.0,37.0,29.64,South,180,5.0,13.0,100,0.02,,,0.03,Weather View 32 v70,2013-01-30 09:58:00,
2013-01-30 05:03:00,37.0,37.0,29.65,SE,135,4.0,13.0,100,0.02,,,0.03,Weather View 32 v70,2013-01-30 10:03:00,
2013-01-30 05:08:00,37.0,37.0,29.65,SSW,202,5.0,14.0,100,0.02,,,0.03,Weather View 32 v70,2013-01-30 10:08:00,
2013-01-30 05:13:00,37.0,37.0,29.65,South,180,4.0,14.0,100,0.02,,,0.03,Weather View 32 v70,2013-01-30 10:13:00,
2013-01-30 05:18:00,38.0,38.0,29.65,SW,225,8.0,16.0,100,0.02,,,0.04,Weather View 32 v70,2013-01-30 10:18:00,
2013-01-30 05:23:00,38.0,38.0,29.64,SSW,202,7.0,16.0,100,0.02,,,0.04,Weather View 32 v70,2013-01-30 10:23:00,
2013-01-30 05:28:00,38.0,38.0,29.64,SW,225,6.0,16.0,100,0.02,,,0.04,Weather View 32 v70,2013-01-30 10:28:00,
2013-01-30 05:33:00,38.0,38.0,29.65,SSW,202,10.0,16.0,100,0.02,,,0.04,Weather View 32 v70,2013-01-30 10:33:00,
2013-01-30 05:38:00,38.0,38.0,29.63,SW,225,7.0,16.0,100,0.02,,,0.04,Weather View 32 v70,2013-01-30 10:38:00,
2013-01-30 05:43:00,38.0,38.0,29.62,SW,225,8.0,17.0,100,0.01,,,0.04,Weather View 32 v70,2013-01-30 10:43:00,
2013-01-30 05:48:00,38.0,38.0,29.63,SSW,202,8.0,17.0,100,0.01,,,0.04,Weather View 32 v70,2013-01-30 10:48:00,
2013-01-30 05:53:00,38.0,38.0,29.62,SSW,202,6.0,17.0,100,0.01,,,0.04,Weather View 32 v70,2013-01-30 10:53:00,
2013-01-30 05:58:00,38.0,38.0,29.62,SSW,202,14.0,17.0,100,0.01,,,0.04,Weather View 32 v70,2013-01-30 10:58:00,
2013-01-30 06:03:00,38.0,38.0,29.62,SSW,202,6.0,17.0,100,0.02,,,0.05,Weather View 32 v70,2013-01-30 11:03:00,
2013-01-30 06:08:00,37.0,37.0,29.62,SSW,202,10.0,17.0,100,0.02,,,0.05,Weather View 32 v70,2013-01-30 11:08:00,
2013-01-30 06:13:00,38.0,38.0,29.62,SSW,202,9.0,17.0,100,0.02,,,0.05,Weather View 32 v70,2013-01-30 11:13:00,
2013-01-30 06:18:00,38.0,38.0,29.62,SSW,202,14.0,17.0,100,0.01,,,0.05,Weather View 32 v70,2013-01-30 11:18:00,
2013-01-30 06:23:00,38.0,38.0,29.61,SSE,157,4.0,17.0,100,0.02,,,0.06,Weather View 32 v70,2013-01-30 11:23:00,
2013-01-30 06:28:00,38.0,38.0,29.62,WSW,247,13.0,17.0,100,0.02,,,0.06,Weather View 32 v70,2013-01-30 11:28:00,
2013-01-30 06:33:00,38.0,38.0,29.61,SSW,202,15.0,19.0,100,0.02,,,0.06,Weather View 32 v70,2013-01-30 11:33:00,
2013-01-30 06:38:00,38.0,38.0,29.61,SSE,157,3.0,19.0,100,0.02,,,0.07,Weather View 32 v70,2013-01-30 11:38:00,
2013-01-30 06:43:00,38.0,38.0,29.61,SW,225,7.0,19.0,100,0.03,,,0.07,Weather View 32 v70,2013-01-30 11:43:00,
2013-01-30 06:48:00,38.0,38.0,29.60,SSW,202,10.0,19.0,100,0.03,,,0.07,Weather View 32 v70,2013-01-30 11:48:00,
2013-01-30 06:53:00,38.0,38.0,29.60,SSW,202,9.0,19.0,100,0.04,,,0.08,Weather View 32 v70,2013-01-30 11:53:00,
2013-01-30 06:58:00,38.0,38.0,29.58,SSW,202,6.0,19.0,100,0.04,,,0.08,Weather View 32 v70,2013-01-30 11:58:00,
2013-01-30 07:03:00,38.0,38.0,29.61,SSW,202,15.0,19.0,100,0.03,,,0.08,Weather View 32 v70,2013-01-30 12:03:00,
2013-01-30 07:08:00,38.0,38.0,29.61,SSE,157,11.0,19.0,100,0.03,,,0.08,Weather View 32 v70,2013-01-30 12:08:00,
2013-01-30 07:13:00,38.0,38.0,29.60,SSW,202,10.0,19.0,100,0.03,,,0.08,Weather View 32 v70,2013-01-30 12:13:00,
2013-01-30 07:18:00,38.0,38.0,29.60,SSW,202,5.0,19.0,100,0.03,,,0.08,Weather View 32 v70,2013-01-30 12:18:00,
2013-01-30 07:23:00,38.0,38.0,29.60,SSE,157,7.0,19.0,100,0.03,,,0.09,Weather View 32 v70,2013-01-30 12:23:00,
2013-01-30 07:28:00,38.0,38.0,29.60,SW,225,6.0,19.0,100,0.03,,,0.10,Weather View 32 v70,2013-01-30 12:28:00,
2013-01-30 07:33:00,38.0,38.0,29.60,SSW,202,10.0,19.0,100,0.04,,,0.10,Weather View 32 v70,2013-01-30 12:33:00,
2013-01-30 07:38:00,38.0,38.0,29.60,SW,225,9.0,19.0,100,0.04,,,0.10,Weather View 32 v70,2013-01-30 12:38:00,
2013-01-30 07:43:00,38.0,38.0,29.59,SSW,202,12.0,19.0,100,0.03,,,0.10,Weather View 32 v70,2013-01-30 12:43:00,
2013-01-30 07:48:00,38.0,38.0,29.59,SE,135,10.0,17.0,100,0.03,,,0.10,Weather View 32 v70,2013-01-30 12:48:00,
2013-01-30 07:53:00,38.0,38.0,29.59,SSW,202,10.0,20.0,100,0.02,,,0.10,Weather View 32 v70,2013-01-30 12:53:00,
2013-01-30 07:58:00,38.0,38.0,29.59,SSW,202,12.0,20.0,100,0.02,,,0.10,Weather View 32 v70,2013-01-30 12:58:00,
2013-01-30 08:03:00,38.0,38.0,29.58,South,180,9.0,20.0,100,0.02,,,0.10,Weather View 32 v70,2013-01-30 13:03:00,
2013-01-30 08:08:00,38.0,38.0,29.58,SSE,157,7.0,20.0,100,0.02,,,0.10,Weather View 32 v70,2013-01-30 13:08:00,
2013-01-30 08:13:00,38.0,38.0,29.58,SSW,202,10.0,20.0,100,0.02,,,0.10,Weather View 32 v70,2013-01-30 13:13:00,
2013-01-30 08:18:00,38.0,38.0,29.57,SSW,202,14.0,20.0,100,0.02,,,0.10,Weather View 32 v70,2013-01-30 13:18:00,
2013-01-30 08:23:00,38.0,38.0,29.57,South,180,12.0,20.0,100,0.01,,,0.10,Weather View 32 v70,2013-01-30 13:23:00,
2013-01-30 08:28:00,38.0,38.0,29.57,SSW,202,16.0,20.0,100,0.01,,,0.10,Weather View 32 v70,2013-01-30 13:28:00,
2013-01-30 08:33:00,38.0,38.0,29.58,SSW,202,7.0,20.0,100,0.00,,,0.10,Weather View 32 v70,2013-01-30 13:33:00,
2013-01-30 08:38:00,38.0,38.0,29.55,SSW,202,7.0,20.0,100,0.00,,,0.10,Weather View 32 v70,2013-01-30 13:38:00,
2013-01-30 08:43:00,38.0,38.0,29.57,WSW,247,5.0,20.0,100,0.00,,,0.10,Weather View 32 v70,2013-01-30 13:43:00,
2013-01-30 08:48:00,39.0,39.0,29.57,SW,225,9.0,20.0,100,0.00,,,0.10,Weather View 32 v70,2013-01-30 13:48:00,
2013-01-30 08:53:00,39.0,39.0,29.57,SSW,202,10.0,20.0,100,0.00,,,0.10,Weather View 32 v70,2013-01-30 13:53:00,
2013-01-30 08:58:00,39.0,39.0,29.56,SSW,202,9.0,20.0,100,0.00,,,0.10,Weather View 32 v70,2013-01-30 13:58:00,
2013-01-30 09:03:00,39.0,39.0,29.55,SW,225,13.0,20.0,100,0.01,,,0.11,Weather View 32 v70,2013-01-30 14:03:00,
2013-01-30 09:08:00,39.0,39.0,29.55,SW,225,11.0,20.0,100,0.01,,,0.11,Weather View 32 v70,2013-01-30 14:08:00,
2013-01-30 09:13:00,39.0,39.0,29.56,SSW,202,15.0,20.0,100,0.01,,,0.11,Weather View 32 v70,2013-01-30 14:13:00,
2013-01-30 09:19:00,39.0,39.0,29.56,SSW,202,12.0,19.0,100,0.01,,,0.11,Weather View 32 v70,2013-01-30 14:19:00,
2013-01-30 09:23:00,39.0,39.0,29.55,SSW,202,8.0,19.0,100,0.01,,,0.11,Weather View 32 v70,2013-01-30 14:23:00,
2013-01-30 09:29:00,39.0,39.0,29.54,SW,225,6.0,19.0,100,0.01,,,0.11,Weather View 32 v70,2013-01-30 14:29:00,
2013-01-30 09:34:00,40.0,40.0,29.54,South,180,14.0,19.0,100,0.01,,,0.11,Weather View 32 v70,2013-01-30 14:34:00,
2013-01-30 09:39:00,40.0,40.0,29.54,SSW,202,10.0,19.0,100,0.01,,,0.11,Weather View 32 v70,2013-01-30 14:39:00,
2013-01-30 09:44:00,40.0,40.0,29.54,SSW,202,9.0,19.0,100,0.01,,,0.11,Weather View 32 v70,2013-01-30 14:44:00,
2013-01-30 09:49:00,40.0,40.0,29.54,SW,225,9.0,19.0,100,0.01,,,0.11,Weather View 32 v70,2013-01-30 14:49:00,
2013-01-30 09:54:00,40.0,40.0,29.54,South,180,11.0,20.0,100,0.02,,,0.12,Weather View 32 v70,2013-01-30 14:54:00,
2013-01-30 09:59:00,40.0,40.0,29.54,SSW,202,15.0,22.0,100,0.02,,,0.12,Weather View 32 v70,2013-01-30 14:59:00,
2013-01-30 10:04:00,40.0,40.0,29.53,SSW,202,10.0,22.0,100,0.01,,,0.12,Weather View 32 v70,2013-01-30 15:04:00,
2013-01-30 10:09:00,40.0,40.0,29.53,South,180,12.0,22.0,100,0.01,,,0.12,Weather View 32 v70,2013-01-30 15:09:00,
2013-01-30 10:14:00,40.0,40.0,29.53,SSW,202,9.0,22.0,100,0.01,,,0.12,Weather View 32 v70,2013-01-30 15:14:00,
2013-01-30 10:19:00,40.0,40.0,29.52,SSW,202,12.0,22.0,100,0.01,,,0.12,Weather View 32 v70,2013-01-30 15:19:00,
2013-01-30 10:24:00,40.0,40.0,29.52,SSW,202,11.0,22.0,100,0.01,,,0.12,Weather View 32 v70,2013-01-30 15:24:00,
2013-01-30 10:29:00,40.0,40.0,29.52,South,180,9.0,22.0,100,0.01,,,0.12,Weather View 32 v70,2013-01-30 15:29:00,
2013-01-30 10:34:00,41.0,41.0,29.51,SSW,202,8.0,22.0,100,0.02,,,0.13,Weather View 32 v70,2013-01-30 15:34:00,
2013-01-30 10:39:00,41.0,41.0,29.50,South,180,7.0,22.0,100,0.02,,,0.13,Weather View 32 v70,2013-01-30 15:39:00,
2013-01-30 10:44:00,41.0,41.0,29.49,SSW,202,12.0,22.0,100,0.02,,,0.13,Weather View 32 v70,2013-01-30 15:44:00,
2013-01-30 10:49:00,41.0,41.0,29.49,South,180,12.0,22.0,100,0.02,,,0.13,Weather View 32 v70,2013-01-30 15:49:00,
2013-01-30 10:54:00,42.0,42.0,29.48,SSW,202,7.0,22.0,100,0.01,,,0.13,Weather View 32 v70,2013-01-30 15:54:00,
2013-01-30 10:59:00,42.0,42.0,29.48,SSW,202,10.0,20.0,100,0.02,,,0.14,Weather View 32 v70,2013-01-30 15:59:00,
2013-01-30 11:04:00,42.0,42.0,29.48,SSW,202,6.0,18.0,100,0.02,,,0.14,Weather View 32 v70,2013-01-30 16:04:00,
2013-01-30 11:09:00,42.0,42.0,29.47,SW,225,9.0,18.0,100,0.02,,,0.14,Weather View 32 v70,2013-01-30 16:09:00,
2013-01-30 11:14:00,42.0,42.0,29.47,SW,225,10.0,17.0,100,0.02,,,0.14,Weather View 32 v70,2013-01-30 16:14:00,
2013-01-30 11:19:00,42.0,42.0,29.46,SSW,202,12.0,24.0,100,0.02,,,0.14,Weather View 32 v70,2013-01-30 16:19:00,
2013-01-30 11:24:00,42.0,42.0,29.46,SSW,202,10.0,24.0,100,0.02,,,0.14,Weather View 32 v70,2013-01-30 16:24:00,
2013-01-30 11:29:00,42.0,42.0,29.46,West,270,7.0,24.0,100,0.02,,,0.14,Weather View 32 v70,2013-01-30 16:29:00,
2013-01-30 11:34:00,42.0,42.0,29.46,South,180,10.0,25.0,100,0.01,,,0.14,Weather View 32 v70,2013-01-30 16:34:00,
2013-01-30 11:39:00,42.0,42.0,29.45,SW,225,13.0,26.0,100,0.01,,,0.14,Weather View 32 v70,2013-01-30 16:39:00,
2013-01-30 11:44:00,42.0,42.0,29.45,SSW,202,15.0,26.0,100,0.01,,,0.14,Weather View 32 v70,2013-01-30 16:44:00,
2013-01-30 11:49:00,43.0,43.0,29.44,SSW,202,10.0,26.0,100,0.01,,,0.14,Weather View 32 v70,2013-01-30 16:49:00,
2013-01-30 11:54:00,42.0,42.0,29.44,SSW,202,11.0,26.0,100,0.01,,,0.14,Weather View 32 v70,2013-01-30 16:54:00,
2013-01-30 11:59:00,42.0,42.0,29.43,SW,225,15.0,26.0,100,0.01,,,0.15,Weather View 32 v70,2013-01-30 16:59:00,
2013-01-30 12:04:00,42.0,42.0,29.42,SSW,202,10.0,26.0,100,0.01,,,0.15,Weather View 32 v70,2013-01-30 17:04:00,
2013-01-30 12:09:00,42.0,42.0,29.41,SW,225,8.0,26.0,100,0.01,,,0.15,Weather View 32 v70,2013-01-30 17:09:00,
2013-01-30 12:14:00,43.0,43.0,29.42,SW,225,16.0,26.0,100,0.01,,,0.15,Weather View 32 v70,2013-01-30 17:14:00,
2013-01-30 12:19:00,43.0,43.0,29.42,SSW,202,15.0,26.0,100,0.01,,,0.15,Weather View 32 v70,2013-01-30 17:19:00,
2013-01-30 12:24:00,43.0,43.0,29.41,SSW,202,12.0,26.0,100,0.01,,,0.15,Weather View 32 v70,2013-01-30 17:24:00,
2013-01-30 12:29:00,44.0,44.0,29.41,SSW,202,15.0,26.0,100,0.01,,,0.15,Weather View 32 v70,2013-01-30 17:29:00,
2013-01-30 12:35:00,43.0,43.0,29.40,South,180,5.0,26.0,100,0.00,,,0.15,Weather View 32 v70,2013-01-30 17:35:00,
2013-01-30 12:40:00,43.0,43.0,29.40,SSW,202,16.0,25.0,100,0.01,,,0.15,Weather View 32 v70,2013-01-30 17:40:00,
2013-01-30 12:45:00,43.0,43.0,29.40,SSW,202,12.0,25.0,100,0.01,,,0.15,Weather View 32 v70,2013-01-30 17:45:00,
2013-01-30 12:50:00,43.0,43.0,29.39,SSW,202,8.0,25.0,100,0.01,,,0.15,Weather View 32 v70,2013-01-30 17:50:00,
2013-01-30 12:55:00,43.0,43.0,29.39,SW,225,12.0,25.0,100,0.01,,,0.15,Weather View 32 v70,2013-01-30 17:55:00,
2013-01-30 13:00:00,43.0,43.0,29.39,SSW,202,10.0,25.0,100,0.00,,,0.15,Weather View 32 v70,2013-01-30 18:00:00,
2013-01-30 13:05:00,43.0,43.0,29.38,SW,225,12.0,25.0,100,0.00,,,0.15,Weather View 32 v70,2013-01-30 18:05:00,
2013-01-30 13:10:00,43.0,43.0,29.38,SSW,202,16.0,25.0,100,0.00,,,0.15,Weather View 32 v70,2013-01-30 18:10:00,
2013-01-30 13:15:00,43.0,43.0,29.37,WSW,247,10.0,25.0,100,0.00,,,0.15,Weather View 32 v70,2013-01-30 18:15:00,
2013-01-30 13:20:00,43.0,43.0,29.37,SSW,202,15.0,25.0,100,0.00,,,0.15,Weather View 32 v70,2013-01-30 18:20:00,
2013-01-30 13:25:00,43.0,43.0,29.37,SSE,157,6.0,25.0,100,0.00,,,0.15,Weather View 32 v70,2013-01-30 18:25:00,
2013-01-30 13:30:00,43.0,43.0,29.37,SSW,202,7.0,25.0,100,0.00,,,0.15,Weather View 32 v70,2013-01-30 18:30:00,
2013-01-30 13:35:00,43.0,43.0,29.37,South,180,9.0,25.0,100,0.00,,,0.15,Weather View 32 v70,2013-01-30 18:35:00,
2013-01-30 13:40:00,44.0,44.0,29.36,SSW,202,11.0,25.0,100,0.00,,,0.15,Weather View 32 v70,2013-01-30 18:40:00,
2013-01-30 13:45:00,43.0,43.0,29.36,South,180,9.0,25.0,100,0.00,,,0.15,Weather View 32 v70,2013-01-30 18:45:00,
2013-01-30 13:50:00,43.0,43.0,29.35,WSW,247,4.0,25.0,100,0.00,,,0.15,Weather View 32 v70,2013-01-30 18:50:00,
2013-01-30 13:55:00,44.0,44.0,29.36,SSW,202,12.0,25.0,100,0.00,,,0.15,Weather View 32 v70,2013-01-30 18:55:00,
2013-01-30 14:00:00,44.0,44.0,29.35,SW,225,9.0,21.0,100,0.00,,,0.15,Weather View 32 v70,2013-01-30 19:00:00,
2013-01-30 14:05:00,44.0,44.0,29.35,SSE,157,4.0,21.0,100,0.00,,,0.15,Weather View 32 v70,2013-01-30 19:05:00,
2013-01-30 14:10:00,44.0,44.0,29.35,SSW,202,3.0,21.0,100,0.00,,,0.15,Weather View 32 v70,2013-01-30 19:10:00,
2013-01-30 14:15:00,44.0,44.0,29.34,SSW,202,6.0,19.0,100,0.00,,,0.15,Weather View 32 v70,2013-01-30 19:15:00,
2013-01-30 14:20:00,44.0,44.0,29.34,South,180,8.0,17.0,100,0.00,,,0.15,Weather View 32 v70,2013-01-30 19:20:00,
2013-01-30 14:25:00,45.0,45.0,29.35,SSW,202,7.0,17.0,100,0.00,,,0.15,Weather View 32 v70,2013-01-30 19:25:00,
2013-01-30 14:30:00,45.0,45.0,29.34,SSW,202,12.0,17.0,100,0.00,,,0.15,Weather View 32 v70,2013-01-30 19:30:00,
2013-01-30 14:35:00,45.0,45.0,29.33,WSW,247,8.0,17.0,100,0.00,,,0.15,Weather View 32 v70,2013-01-30 19:35:00,
2013-01-30 14:40:00,45.0,45.0,29.33,South,180,6.0,17.0,100,0.00,,,0.15,Weather View 32 v70,2013-01-30 19:40:00,
2013-01-30 14:45:00,45.0,45.0,29.33,SSE,157,4.0,14.0,100,0.00,,,0.15,Weather View 32 v70,2013-01-30 19:45:00,
2013-01-30 14:50:00,46.0,46.0,29.33,South,180,6.0,14.0,100,0.00,,,0.15,Weather View 32 v70,2013-01-30 19:50:00,
2013-01-30 14:55:00,46.0,46.0,29.32,SSW,202,9.0,15.0,100,0.00,,,0.15,Weather View 32 v70,2013-01-30 19:55:00,
2013-01-30 15:00:00,46.0,46.0,29.32,SSW,202,9.0,16.0,100,0.00,,,0.15,Weather View 32 v70,2013-01-30 20:00:00,
2013-01-30 15:05:00,46.0,46.0,29.32,SSW,202,12.0,16.0,100,0.00,,,0.15,Weather View 32 v70,2013-01-30 20:05:00,
2013-01-30 15:10:00,46.0,46.0,29.32,SSW,202,12.0,20.0,100,0.00,,,0.15,Weather View 32 v70,2013-01-30 20:10:00,
2013-01-30 15:15:00,47.0,47.0,29.31,SW,225,16.0,20.0,100,0.00,,,0.15,Weather View 32 v70,2013-01-30 20:15:00,
2013-01-30 15:39:00,46.0,46.0,29.31,SSW,202,13.0,999.9,100,0.00,,,0.15,Weather View 32 v70,2013-01-30 20:39:00,
2013-01-30 15:44:00,46.0,46.0,29.31,SSW,202,10.0,999.9,100,0.00,,,0.15,Weather View 32 v70,2013-01-30 20:44:00,
2013-01-30 15:49:00,46.0,46.0,29.30,SSW,202,6.0,999.9,100,0.00,,,0.15,Weather View 32 v70,2013-01-30 20:49:00,
2013-01-30 15:54:00,46.0,46.0,29.27,SSW,202,10.0,999.9,100,0.00,,,0.15,Weather View 32 v70,2013-01-30 20:54:00,
2013-01-30 15:59:00,46.0,46.0,29.29,South,180,8.0,999.9,100,0.00,,,0.15,Weather View 32 v70,2013-01-30 20:59:00,
2013-01-30 16:04:00,45.0,45.0,29.29,SSE,157,7.0,999.9,100,0.00,,,0.15,Weather View 32 v70,2013-01-30 21:04:00,
2013-01-30 16:09:00,46.0,46.0,29.30,SSW,202,6.0,999.9,100,0.00,,,0.15,Weather View 32 v70,2013-01-30 21:09:00,
2013-01-30 16:14:00,46.0,46.0,29.29,South,180,5.0,999.9,100,0.00,,,0.15,Weather View 32 v70,2013-01-30 21:14:00,
2013-01-30 16:19:00,46.0,46.0,29.28,South,180,4.0,999.9,100,99.99,,,0.15,Weather View 32 v70,2013-01-30 21:19:00,
2013-01-30 16:24:00,47.0,47.0,29.28,SSW,202,5.0,999.9,100,0.15,,,0.15,Weather View 32 v70,2013-01-30 21:24:00,
2013-01-30 16:29:00,47.0,47.0,29.27,East,90,0.0,999.9,100,-99.99,,,0.15,Weather View 32 v70,2013-01-30 21:29:00,
2013-01-30 16:34:00,47.0,47.0,29.27,South,180,5.0,999.9,100,-99.99,,,0.15,Weather View 32 v70,2013-01-30 21:34:00,
2013-01-30 16:39:00,47.0,47.0,29.27,South,180,9.0,16.0,100,0.00,,,0.15,Weather View 32 v70,2013-01-30 21:39:00,
2013-01-30 16:44:00,47.0,47.0,29.26,South,180,6.0,999.9,100,0.00,,,0.15,Weather View 32 v70,2013-01-30 21:44:00,
2013-01-30 16:49:00,47.0,47.0,29.27,SSW,202,5.0,999.9,100,0.00,,,0.15,Weather View 32 v70,2013-01-30 21:49:00,
2013-01-30 16:54:00,47.0,47.0,29.26,SSE,157,7.0,15.0,100,0.00,,,0.15,Weather View 32 v70,2013-01-30 21:54:00,
2013-01-30 16:59:00,48.0,48.0,29.26,SSW,202,7.0,999.9,100,0.00,,,0.15,Weather View 32 v70,2013-01-30 21:59:00,
2013-01-30 17:04:00,48.0,48.0,29.26,SW,225,9.0,15.0,100,0.00,,,0.15,Weather View 32 v70,2013-01-30 22:04:00,
2013-01-30 17:09:00,48.0,48.0,29.26,SSW,202,9.0,15.0,100,0.00,,,0.15,Weather View 32 v70,2013-01-30 22:09:00,
2013-01-30 17:14:00,48.0,48.0,29.27,SSW,202,7.0,999.9,100,0.00,,,0.15,Weather View 32 v70,2013-01-30 22:14:00,
2013-01-30 17:19:00,48.0,48.0,29.26,SSW,202,12.0,999.9,100,0.00,,,0.15,Weather View 32 v70,2013-01-30 22:19:00,
2013-01-30 17:24:00,48.0,48.0,29.27,SW,225,7.0,19.0,100,0.00,,,0.15,Weather View 32 v70,2013-01-30 22:24:00,
2013-01-30 17:29:00,49.0,49.0,29.27,SSW,202,6.0,19.0,100,0.00,,,0.15,Weather View 32 v70,2013-01-30 22:29:00,
2013-01-30 17:34:00,49.0,49.0,29.28,SW,225,11.0,999.9,100,0.00,,,0.15,Weather View 32 v70,2013-01-30 22:34:00,
2013-01-30 17:39:00,50.0,50.0,29.27,South,180,7.0,22.0,100,0.00,,,0.15,Weather View 32 v70,2013-01-30 22:39:00,
2013-01-30 17:44:00,49.0,49.0,29.28,WSW,247,9.0,999.9,100,0.00,,,0.15,Weather View 32 v70,2013-01-30 22:44:00,
2013-01-30 17:49:00,49.0,49.0,29.27,SSW,202,8.0,999.9,100,0.00,,,0.15,Weather View 32 v70,2013-01-30 22:49:00,
2013-01-30 17:54:00,48.0,48.0,29.25,SW,225,12.0,22.0,100,0.00,,,0.15,Weather View 32 v70,2013-01-30 22:54:00,
2013-01-30 17:59:00,48.0,48.0,29.27,SW,225,16.0,22.0,100,0.00,,,0.15,Weather View 32 v70,2013-01-30 22:59:00,
2013-01-30 18:04:00,48.0,48.0,29.27,South,180,10.0,22.0,100,0.00,,,0.15,Weather View 32 v70,2013-01-30 23:04:00,
2013-01-30 18:09:00,47.0,47.0,29.26,SSW,202,15.0,999.9,100,0.00,,,0.15,Weather View 32 v70,2013-01-30 23:09:00,
2013-01-30 18:14:00,47.0,47.0,29.26,South,180,11.0,23.0,100,0.00,,,0.15,Weather View 32 v70,2013-01-30 23:14:00,
2013-01-30 18:19:00,47.0,47.0,29.27,SSW,202,18.0,23.0,100,0.00,,,0.15,Weather View 32 v70,2013-01-30 23:19:00,
2013-01-30 18:24:00,47.0,47.0,29.26,SW,225,12.0,23.0,100,0.00,,,0.15,Weather View 32 v70,2013-01-30 23:24:00,
2013-01-30 18:29:00,48.0,48.0,29.26,South,180,9.0,23.0,100,0.00,,,0.15,Weather View 32 v70,2013-01-30 23:29:00,
2013-01-30 18:34:00,49.0,49.0,29.25,SSW,202,11.0,23.0,100,0.00,,,0.15,Weather View 32 v70,2013-01-30 23:34:00,
2013-01-30 18:39:00,49.0,49.0,29.25,SSW,202,12.0,23.0,100,0.00,,,0.15,Weather View 32 v70,2013-01-30 23:39:00,
2013-01-30 18:44:00,50.0,50.0,29.25,SE,135,6.0,999.9,100,0.00,,,0.15,Weather View 32 v70,2013-01-30 23:44:00,
2013-01-30 18:49:00,50.0,50.0,29.25,SSW,202,19.0,999.9,100,0.00,,,0.16,Weather View 32 v70,2013-01-30 23:49:00,
2013-01-30 18:54:00,50.0,50.0,29.26,SW,225,6.0,23.0,100,0.01,,,0.16,Weather View 32 v70,2013-01-30 23:54:00,
2013-01-30 18:59:00,50.0,50.0,29.25,South,180,13.0,23.0,100,0.01,,,0.16,Weather View 32 v70,2013-01-30 23:59:00,
2013-01-30 19:04:00,50.0,50.0,29.23,SW,225,13.0,23.0,100,0.01,,,0.16,Weather View 32 v70,2013-01-31 00:04:00,
2013-01-30 19:09:00,50.0,50.0,29.25,SSW,202,12.0,23.0,100,0.01,,,0.16,Weather View 32 v70,2013-01-31 00:09:00,
2013-01-30 19:15:00,50.0,50.0,29.26,SSW,202,13.0,23.0,100,0.01,,,0.16,Weather View 32 v70,2013-01-31 00:15:00,
2013-01-30 19:20:00,50.0,50.0,29.26,SSW,202,10.0,999.9,100,-0.15,,,0.16,Weather View 32 v70,2013-01-31 00:20:00,
2013-01-30 19:25:00,50.0,50.0,29.25,SSW,202,13.0,23.0,100,-0.15,,,0.16,Weather View 32 v70,2013-01-31 00:25:00,
2013-01-30 19:30:00,50.0,50.0,29.25,SW,225,15.0,23.0,100,-0.15,,,0.16,Weather View 32 v70,2013-01-31 00:30:00,
2013-01-30 19:35:00,50.0,50.0,29.25,WSW,247,7.0,999.9,100,-0.15,,,0.16,Weather View 32 v70,2013-01-31 00:35:00,
2013-01-30 19:40:00,50.0,50.0,29.25,SW,225,13.0,23.0,100,0.01,,,0.16,Weather View 32 v70,2013-01-31 00:40:00,
2013-01-30 19:45:00,50.0,50.0,29.26,SSW,202,9.0,23.0,100,0.01,,,0.16,Weather View 32 v70,2013-01-31 00:45:00,
2013-01-30 19:50:00,50.0,50.0,29.25,South,180,14.0,23.0,100,0.00,,,0.16,Weather View 32 v70,2013-01-31 00:50:00,
2013-01-30 19:55:00,50.0,50.0,29.25,SW,225,17.0,23.0,100,0.00,,,0.16,Weather View 32 v70,2013-01-31 00:55:00,
2013-01-30 20:00:00,50.0,50.0,29.25,SSW,202,10.0,23.0,100,0.00,,,0.16,Weather View 32 v70,2013-01-31 01:00:00,
2013-01-30 20:05:00,49.0,49.0,29.25,SSW,202,14.0,23.0,100,0.00,,,0.16,Weather View 32 v70,2013-01-31 01:05:00,
2013-01-30 20:10:00,49.0,49.0,29.25,South,180,11.0,23.0,100,0.00,,,0.16,Weather View 32 v70,2013-01-31 01:10:00,
2013-01-30 20:15:00,48.0,48.0,29.25,SW,225,9.0,23.0,100,0.01,,,0.17,Weather View 32 v70,2013-01-31 01:15:00,
2013-01-30 20:20:00,49.0,49.0,29.24,South,180,16.0,23.0,100,0.02,,,0.18,Weather View 32 v70,2013-01-31 01:20:00,
2013-01-30 20:25:00,49.0,49.0,29.23,SSW,202,12.0,23.0,100,0.04,,,0.20,Weather View 32 v70,2013-01-31 01:25:00,
2013-01-30 20:30:00,49.0,49.0,29.23,SSW,202,9.0,23.0,100,0.05,,,0.21,Weather View 32 v70,2013-01-31 01:30:00,
2013-01-30 20:35:00,49.0,49.0,29.23,South,180,6.0,20.0,100,0.05,,,0.21,Weather View 32 v70,2013-01-31 01:35:00,
2013-01-30 20:40:00,49.0,49.0,29.23,SW,225,13.0,19.0,100,0.06,,,0.22,Weather View 32 v70,2013-01-31 01:40:00,
2013-01-30 20:45:00,49.0,49.0,29.23,SSW,202,12.0,19.0,100,0.09,,,0.25,Weather View 32 v70,2013-01-31 01:45:00,
2013-01-30 20:50:00,49.0,49.0,29.22,SSW,202,16.0,18.0,100,0.11,,,0.27,Weather View 32 v70,2013-01-31 01:50:00,
2013-01-30 20:55:00,48.0,48.0,29.20,SSW,202,15.0,18.0,100,0.12,,,0.28,Weather View 32 v70,2013-01-31 01:55:00,
2013-01-30 21:00:00,48.0,48.0,29.20,SSW,202,15.0,18.0,100,0.13,,,0.29,Weather View 32 v70,2013-01-31 02:00:00,
2013-01-30 21:05:00,48.0,48.0,29.21,SW,225,13.0,17.0,100,0.14,,,0.30,Weather View 32 v70,2013-01-31 02:05:00,
2013-01-30 21:10:00,47.0,47.0,29.21,SSW,202,15.0,17.0,100,0.14,,,0.30,Weather View 32 v70,2013-01-31 02:10:00,
2013-01-30 21:15:00,48.0,48.0,29.21,SW,225,12.0,19.0,100,0.14,,,0.31,Weather View 32 v70,2013-01-31 02:15:00,
2013-01-30 21:20:00,47.0,47.0,29.20,SSW,202,9.0,19.0,100,0.13,,,0.31,Weather View 32 v70,2013-01-31 02:20:00,
2013-01-30 21:25:00,47.0,47.0,29.20,SW,225,12.0,19.0,100,0.11,,,0.31,Weather View 32 v70,2013-01-31 02:25:00,
2013-01-30 21:30:00,48.0,48.0,29.19,SSW,202,12.0,19.0,100,0.10,,,0.31,Weather View 32 v70,2013-01-31 02:30:00,
2013-01-30 21:35:00,48.0,48.0,29.19,SSW,202,16.0,19.0,100,0.10,,,0.31,Weather View 32 v70,2013-01-31 02:35:00,
2013-01-30 21:40:00,48.0,48.0,29.19,SSW,202,14.0,19.0,100,0.09,,,0.31,Weather View 32 v70,2013-01-31 02:40:00,
2013-01-30 21:45:00,48.0,48.0,29.19,SSW,202,12.0,19.0,100,0.06,,,0.31,Weather View 32 v70,2013-01-31 02:45:00,
2013-01-30 21:50:00,48.0,48.0,29.19,South,180,9.0,19.0,100,0.04,,,0.31,Weather View 32 v70,2013-01-31 02:50:00,
2013-01-30 21:55:00,48.0,48.0,29.19,South,180,9.0,19.0,100,0.03,,,0.31,Weather View 32 v70,2013-01-31 02:55:00,
2013-01-30 22:00:00,48.0,48.0,29.19,SSW,202,7.0,19.0,100,0.02,,,0.31,Weather View 32 v70,2013-01-31 03:00:00,
2013-01-30 22:05:00,48.0,48.0,29.19,SSW,202,10.0,19.0,100,0.01,,,0.31,Weather View 32 v70,2013-01-31 03:05:00,
2013-01-30 22:10:00,49.0,49.0,29.19,SW,225,11.0,19.0,100,0.01,,,0.31,Weather View 32 v70,2013-01-31 03:10:00,
2013-01-30 22:15:00,49.0,49.0,29.19,South,180,8.0,19.0,100,0.00,,,0.31,Weather View 32 v70,2013-01-31 03:15:00,
2013-01-30 22:20:00,50.0,50.0,29.19,SSW,202,6.0,19.0,100,0.00,,,0.31,Weather View 32 v70,2013-01-31 03:20:00,
2013-01-30 22:25:00,50.0,50.0,29.19,South,180,7.0,19.0,100,0.00,,,0.31,Weather View 32 v70,2013-01-31 03:25:00,
2013-01-30 22:30:00,51.0,51.0,29.19,SSW,202,7.0,18.0,100,0.00,,,0.31,Weather View 32 v70,2013-01-31 03:30:00,
2013-01-30 22:35:00,51.0,51.0,29.19,SSW,202,8.0,18.0,100,0.00,,,0.31,Weather View 32 v70,2013-01-31 03:35:00,
2013-01-30 22:40:00,51.0,51.0,29.19,SSW,202,10.0,17.0,100,0.00,,,0.31,Weather View 32 v70,2013-01-31 03:40:00,
2013-01-30 22:45:00,50.0,50.0,29.19,SSW,202,9.0,17.0,100,0.00,,,0.31,Weather View 32 v70,2013-01-31 03:45:00,
2013-01-30 22:50:00,50.0,50.0,29.19,SW,225,9.0,16.0,100,0.00,,,0.31,Weather View 32 v70,2013-01-31 03:50:00,
2013-01-30 22:55:00,50.0,50.0,29.19,SSW,202,10.0,16.0,100,0.00,,,0.31,Weather View 32 v70,2013-01-31 03:55:00,
2013-01-30 23:00:00,50.0,50.0,29.19,SSW,202,9.0,16.0,100,0.00,,,0.31,Weather View 32 v70,2013-01-31 04:00:00,
2013-01-30 23:05:00,50.0,50.0,29.18,SW,225,9.0,16.0,100,0.00,,,0.31,Weather View 32 v70,2013-01-31 04:05:00,
2013-01-30 23:10:00,50.0,50.0,29.18,SW,225,9.0,16.0,100,0.00,,,0.31,Weather View 32 v70,2013-01-31 04:10:00,
2013-01-30 23:15:00,51.0,51.0,29.18,SSW,202,10.0,16.0,100,0.00,,,0.31,Weather View 32 v70,2013-01-31 04:15:00,
2013-01-30 23:20:00,51.0,51.0,29.18,WSW,247,4.0,16.0,100,0.00,,,0.31,Weather View 32 v70,2013-01-31 04:20:00,
2013-01-30 23:25:00,51.0,51.0,29.18,SSW,202,7.0,16.0,100,0.00,,,0.31,Weather View 32 v70,2013-01-31 04:25:00,
2013-01-30 23:30:00,52.0,52.0,29.18,SW,225,4.0,17.0,100,0.00,,,0.31,Weather View 32 v70,2013-01-31 04:30:00,
2013-01-30 23:35:00,52.0,52.0,29.18,SW,225,7.0,17.0,100,0.00,,,0.31,Weather View 32 v70,2013-01-31 04:35:00,
2013-01-30 23:40:00,52.0,52.0,29.18,SSW,202,1.0,17.0,100,0.00,,,0.31,Weather View 32 v70,2013-01-31 04:40:00,
2013-01-30 23:45:00,52.0,52.0,29.17,SSE,157,7.0,17.0,100,0.00,,,0.31,Weather View 32 v70,2013-01-31 04:45:00,
2013-01-30 23:50:00,52.0,52.0,29.17,SSE,157,7.0,17.0,100,0.00,,,0.31,Weather View 32 v70,2013-01-31 04:50:00,
2013-01-30 23:55:00,52.0,52.0,29.17,South,180,4.0,17.0,100,0.00,,,0.31,Weather View 32 v70,2013-01-31 04:55:00,